Home > Weather > Santa Barbara > Past weeks

Flag for USA Past Weather in Santa Barbara, California, USA — Yesterday and Last 2 Weeks

Now
77 °F

Sunny.


Feels Like: 79 °F
Forecast: 61 / 73 °F
Wind: 12 mph from South

Location: Santa Barbara Municipal Airport

Current Time: Jul 25, 2016 at 1:19:21 PM

Latest Report: Jul 25, 2016 at 12:53 PM


Visibility: 10 mi

Pressure: 29.96 "Hg

Humidity: 64%

Dew Point: 64 °F

Location of Santa BarbaraLocation

Past Weather in Santa Barbara — Graph

°F

Santa Barbara Temperature Yesterday

Maximum temperature yesterday: 74 °F (at 1:53 PM)
Minimum temperature yesterday: 60 °F (at 5:53 AM)
Average temperature yesterday: 66 °F

High & Low Weather Summary for the Past Weeks

 TemperatureHumidityPressure
High93 °F (Jul 23, 12:53 AM)100% (Jul 14, 9:53 PM)30.06 "Hg (Jul 14, 9:53 PM)
Low55 °F (Jul 13, 5:53 AM)13% (Jul 23, 12:53 AM)29.76 "Hg (Jul 23, 3:53 PM)
Average66 °F82%29.92 "Hg
* Reported Jul 10 11:53 AM — Jul 25 11:53 AM, Santa Barbara, Weather by CustomWeather, © 2016

Note: Actual official high and low records may vary slightly from our data, if they occured in-between our weather recording intervals... More about our weather records

Advertising

Santa Barbara Weather History for the Previous 24 Hours

Scroll right to see more
 ConditionsComfort  
Time TempWeatherWind HumidityBarometerVisibility
11:53 AM
Mon, Jul 25
72 °FSunny.6 mph76%29.97 "Hg9 mi
10:53 AM70 °FScattered clouds.8 mph81%29.98 "Hg9 mi
9:53 AM67 °FLow clouds.No wind87%29.98 "Hg7 mi
8:53 AM64 °FFog.3 mph100%29.98 "Hg2 mi
7:53 AM63 °FFog.3 mph100%29.96 "Hg3 mi
6:53 AM63 °FFog.5 mph100%29.94 "Hg3 mi
5:53 AM63 °FFog.No wind100%29.93 "Hg4 mi
4:53 AM62 °FFog.6 mph100%29.93 "Hg1 mi
4:01 AM62 °FFog.3 mph100%29.92 "Hg2 mi
3:53 AM62 °FFog.6 mph100%29.91 "Hg2 mi
2:53 AM62 °FFog.3 mph100%29.92 "Hg2 mi
1:53 AM62 °FFog.No wind100%29.91 "Hg1 mi
12:53 AM62 °FFog.No wind100%29.90 "Hg1 mi
11:53 PM
Sun, Jul 24
62 °FFog.No wind100%29.92 "Hg1 mi
10:58 PM62 °FFog.3 mph100%29.92 "Hg2 mi
9:53 PM63 °FFog.5 mph97%29.90 "Hg6 mi
8:53 PM63 °FFog.7 mph100%29.88 "Hg4 mi
7:53 PM64 °FFog.12 mph100%29.88 "Hg2 mi
6:53 PM68 °FFog.10 mph93%29.87 "Hg4 mi
5:53 PM74 °FSunny.6 mph79%29.88 "Hg7 mi
4:53 PM74 °FSunny.8 mph76%29.88 "Hg8 mi
3:53 PM73 °FSunny.9 mph79%29.90 "Hg8 mi
2:53 PM74 °FSunny.12 mph76%29.91 "Hg8 mi
1:53 PM74 °FSunny.12 mph76%29.93 "Hg6 mi
Weather by CustomWeather, © 2016

See weather overviewHow to use our weather pages